This is the latest recevied weather packets stored in our database for station/object KD9IXX-13. If no packets are shown the sender has not sent any weather packets the latest 10 day(s).
| Time | Temp. | Humidity | Pressure | Rain* | Wind** | Luminosity | Snow |
|---|---|---|---|---|---|---|---|
| 1778167502 | 12.78° C | 47% | 1016.7 hPa | 0 mm | - | 706 W/m² | - |
| 1778167202 | 12.78° C | 47% | 1016.9 hPa | 0 mm | - | 673 W/m² | - |
| 1778166902 | 12.22° C | 51% | 1016.8 hPa | 0 mm | - | 647 W/m² | - |
| 1778166602 | 12.22° C | 50% | 1016.8 hPa | 0 mm | - | 674 W/m² | - |
| 1778166302 | 11.67° C | 48% | 1017 hPa | 0 mm | - | 673 W/m² | - |
| 1778166002 | 12.22° C | 48% | 1017.2 hPa | 0 mm | - | 626 W/m² | - |
| 1778165702 | 11.67° C | 50% | 1017.2 hPa | 0 mm | - | 588 W/m² | - |
| 1778165402 | 11.11° C | 49% | 1016.9 hPa | 0 mm | - | 622 W/m² | - |
| 1778165102 | 11.11° C | 53% | 1017.3 hPa | 0 mm | - | 655 W/m² | - |
| 1778164802 | 11.11° C | 51% | 1017.2 hPa | 0 mm | - | 622 W/m² | - |
| 1778164502 | 11.11° C | 55% | 1017.2 hPa | 0 mm | - | 631 W/m² | - |
| 1778164202 | 11.11° C | 53% | 1017.3 hPa | 0 mm | - | 613 W/m² | - |
| 1778163902 | 11.11° C | 53% | 1017.1 hPa | 0 mm | - | 622 W/m² | - |
| 1778163601 | 11.11° C | 53% | 1017.2 hPa | 0 mm | - | 597 W/m² | - |
| 1778163302 | 10.56° C | 53% | 1017.1 hPa | 0 mm | - | 515 W/m² | - |
| 1778163002 | 10° C | 56% | 1017.4 hPa | 0 mm | - | 508 W/m² | - |
| 1778162702 | 10° C | 57% | 1017.3 hPa | 0 mm | - | 523 W/m² | - |
| 1778162102 | 10° C | 57% | 1017.5 hPa | 0 mm | - | 546 W/m² | - |
| 1778161802 | 10° C | 58% | 1017.8 hPa | 0 mm | - | 523 W/m² | - |
| 1778161502 | 9.44° C | 57% | 1017.6 hPa | 0 mm | - | 473 W/m² | - |
| 1778161202 | 9.44° C | 59% | 1017.7 hPa | 0 mm | - | 438 W/m² | - |
| 1778160902 | 9.44° C | 58% | 1017.6 hPa | 0 mm | - | 409 W/m² | - |
| 1778160602 | 8.89° C | 61% | 1017.6 hPa | 0 mm | - | 394 W/m² | - |
| 1778160303 | 8.89° C | 59% | 1017.6 hPa | 0 mm | - | 361 W/m² | - |
| 1778160002 | 8.33° C | 62% | 1017.6 hPa | 0 mm | - | 335 W/m² | - |
* Rain latest hour (hover to see other rain measurements)
** Current wind speed in m/s (hover to see current wind gust speed)